Cruise inventory

FRV Scotia 0688S_2

Cruise summary report

Cruise Info. 
Ship name (ship code)FRV Scotia (749S)
Cruise identifier0688S_2
Cruise period1988-06-17 — 1988-06-28
StatusCompleted
Port of returnAberdeen, United Kingdom
Objectives1. To complete the hydrochemical survey of the Clyde Basin and deploy two current meter moorings on the Great Plateau.
2. To deploy three current meter moorings west of Orkney and one west of Shetland.
3. To carry out an extensive hydrographic survey in the area of the Fair Isle and Dooley currents.
4. To attempt the recovery by trawl of mooring EC4 at 58º 21'N 00º 27.6'W approximately.
5. To collect water samples for radio-caesium analysis.
6. To conduct tests of the prototype version of the Marine Position Recorder.
Chief scientistJ H Anthony Martin (Scottish Office Agriculture and Fisheries Department Aberdeen Marine Laboratory)
Cruise reportFRV Scotia 0688S_2 cruise report sc06_88part2.pdf — access key 'C' (0.09 MB) 
Ocean/sea areas 
GeneralNorth Sea
Inner Seas off the West Coast of Scotland
North East Atlantic Ocean (limit 40W)
SpecificFirth of Clyde, Minches, west of Orkney and Shetland, Fair Isle Channel, NW North Sea
Track chartsFRV Scotia 0688S_2 cruise track — sc06_88_part2track.pdf (0.05 MB) 
Measurements 
Physical oceanography 
Surface measurements underway (T,S)
Water bottle stationsQuantity: number of stations = 66
Description: 20 S surface
CTD stationsQuantity: number of stations = 91
Chemical oceanography 
PhosphateQuantity: number of stations = 43
NitrateQuantity: number of stations = 43
Data held at BODC 
Series/Profiles 
91  CTD/STD cast
Electrical conductivity of the water column
Vertical spatial coordinates
Salinity of the water column
Temperature of the water column
Electrical conductivity of the water column
Vertical spatial coordinates
Salinity of the water column
Temperature of the water column

BODC idDate/TimeLocationDoc.
1756781988-06-23 04:42 60° 11' 52" N  1° 49' 56" W  View metadata report for BODC series reference number 175678
1756911988-06-23 06:08 59° 59' 59" N  1° 59' 54" W  View metadata report for BODC series reference number 175691
1753901988-06-19 11:47 55° 50' 36" N  5° 20' 11" W  View metadata report for BODC series reference number 175390
1754081988-06-19 17:46 55° 1' 20" N  5° 24' 44" W  View metadata report for BODC series reference number 175408
1754211988-06-19 19:23 55° 10' 37" N  5° 24' 2" W  View metadata report for BODC series reference number 175421
1754331988-06-19 20:25 55° 10' 0" N  5° 34' 26" W  View metadata report for BODC series reference number 175433
1754451988-06-20 22:37 59° 10' 13" N  5° 28' 51" W  View metadata report for BODC series reference number 175445
1754571988-06-21 00:21 59° 10' 3" N  4° 59' 41" W  View metadata report for BODC series reference number 175457
1754691988-06-21 01:44 59° 9' 59" N  4° 30' 0" W  View metadata report for BODC series reference number 175469
1754701988-06-21 03:22 59° 10' 2" N  3° 59' 50" W  View metadata report for BODC series reference number 175470
1754821988-06-21 04:55 59° 10' 3" N  3° 29' 46" W  View metadata report for BODC series reference number 175482
1754941988-06-21 06:16 59° 20' 2" N  3° 30' 5" W  View metadata report for BODC series reference number 175494
1755011988-06-21 16:16 59° 19' 57" N  4° 0' 5" W  View metadata report for BODC series reference number 175501
1755131988-06-21 17:57 59° 20' 1" N  4° 29' 46" W  View metadata report for BODC series reference number 175513
1755251988-06-21 19:38 59° 19' 53" N  5° 0' 11" W  View metadata report for BODC series reference number 175525
1763201988-06-27 15:04 58° 13' 29" N  0° 36' 34" W  View metadata report for BODC series reference number 176320
1763321988-06-27 16:49 58° 4' 3" N  1° 4' 37" W  View metadata report for BODC series reference number 176332
1763441988-06-27 17:49 57° 58' 59" N  1° 19' 58" W  View metadata report for BODC series reference number 176344
1763561988-06-27 18:42 57° 55' 39" N  1° 35' 36" W  View metadata report for BODC series reference number 176356
1763681988-06-27 19:37 57° 52' 6" N  1° 51' 1" W  View metadata report for BODC series reference number 176368
1763811988-06-27 20:28 57° 48' 6" N  1° 59' 4" W  View metadata report for BODC series reference number 176381
1757091988-06-23 07:55 59° 59' 55" N  2° 30' 0" W  View metadata report for BODC series reference number 175709
1757101988-06-23 09:47 59° 49' 57" N  2° 30' 10" W  View metadata report for BODC series reference number 175710
1757221988-06-23 10:52 59° 39' 59" N  2° 30' 2" W  View metadata report for BODC series reference number 175722
1757341988-06-23 12:24 59° 39' 57" N  2° 0' 20" W  View metadata report for BODC series reference number 175734
1757461988-06-23 14:12 59° 49' 46" N  1° 29' 38" W  View metadata report for BODC series reference number 175746
1757581988-06-24 11:51 59° 49' 53" N  1° 59' 58" W  View metadata report for BODC series reference number 175758
1757711988-06-24 13:55 59° 39' 57" N  1° 30' 10" W  View metadata report for BODC series reference number 175771
1757831988-06-24 14:54 59° 30' 1" N  1° 30' 10" W  View metadata report for BODC series reference number 175783
1757951988-06-24 16:37 59° 29' 54" N  1° 59' 50" W  View metadata report for BODC series reference number 175795
1758021988-06-24 18:28 59° 29' 48" N  2° 29' 43" W  View metadata report for BODC series reference number 175802
1758141988-06-24 20:36 59° 24' 58" N  2° 59' 47" W  View metadata report for BODC series reference number 175814
1758261988-06-24 21:18 59° 29' 54" N  2° 59' 59" W  View metadata report for BODC series reference number 175826
1758381988-06-24 22:24 59° 39' 50" N  3° 0' 21" W  View metadata report for BODC series reference number 175838
1758511988-06-24 23:45 59° 49' 53" N  3° 0' 27" W  View metadata report for BODC series reference number 175851
1758631988-06-25 01:21 59° 50' 0" N  3° 29' 46" W  View metadata report for BODC series reference number 175863
1758751988-06-25 02:19 59° 40' 2" N  3° 30' 6" W  View metadata report for BODC series reference number 175875
1758871988-06-25 03:27 59° 30' 0" N  3° 30' 8" W  View metadata report for BODC series reference number 175887
1758991988-06-25 06:14 59° 0' 1" N  3° 30' 21" W  View metadata report for BODC series reference number 175899
1759061988-06-25 08:04 59° 0' 0" N  4° 0' 4" W  View metadata report for BODC series reference number 175906
1759181988-06-25 09:35 58° 59' 58" N  4° 30' 8" W  View metadata report for BODC series reference number 175918
1759311988-06-25 11:06 59° 0' 0" N  5° 0' 17" W  View metadata report for BODC series reference number 175931
1759431988-06-25 12:12 58° 49' 54" N  5° 0' 34" W  View metadata report for BODC series reference number 175943
1759551988-06-25 13:30 58° 40' 6" N  4° 59' 56" W  View metadata report for BODC series reference number 175955
1759671988-06-25 14:57 58° 40' 3" N  4° 29' 42" W  View metadata report for BODC series reference number 175967
1759791988-06-25 16:10 58° 49' 58" N  4° 29' 53" W  View metadata report for BODC series reference number 175979
1759801988-06-25 17:33 58° 49' 59" N  3° 59' 30" W  View metadata report for BODC series reference number 175980
1759921988-06-25 18:45 58° 40' 0" N  3° 59' 55" W  View metadata report for BODC series reference number 175992
1760061988-06-25 20:10 58° 39' 56" N  3° 30' 2" W  View metadata report for BODC series reference number 176006
1760181988-06-25 21:14 58° 50' 2" N  3° 29' 57" W  View metadata report for BODC series reference number 176018
1760311988-06-25 22:03 58° 56' 6" N  3° 36' 11" W  View metadata report for BODC series reference number 176031
1760431988-06-25 23:09 59° 1' 56" N  3° 42' 5" W  View metadata report for BODC series reference number 176043
1760551988-06-26 00:18 59° 7' 59" N  3° 48' 11" W  View metadata report for BODC series reference number 176055
1760671988-06-26 01:06 59° 13' 57" N  3° 54' 4" W  View metadata report for BODC series reference number 176067
1760791988-06-26 01:55 59° 19' 56" N  4° 0' 3" W  View metadata report for BODC series reference number 176079
1760801988-06-26 02:39 59° 20' 1" N  3° 47' 55" W  View metadata report for BODC series reference number 176080
1760921988-06-26 03:32 59° 20' 0" N  3° 32' 2" W  View metadata report for BODC series reference number 176092
1761111988-06-26 04:25 59° 19' 59" N  3° 15' 59" W  View metadata report for BODC series reference number 176111
1761231988-06-26 07:28 59° 16' 27" N  2° 14' 13" W  View metadata report for BODC series reference number 176123
1761351988-06-26 08:21 59° 16' 58" N  2° 5' 2" W  View metadata report for BODC series reference number 176135
1761471988-06-26 08:54 59° 16' 59" N  1° 56' 0" W  View metadata report for BODC series reference number 176147
1761591988-06-26 09:40 59° 17' 0" N  1° 47' 58" W  View metadata report for BODC series reference number 176159
1761601988-06-26 10:17 59° 17' 0" N  1° 40' 2" W  View metadata report for BODC series reference number 176160
1761721988-06-26 11:04 59° 16' 50" N  1° 29' 52" W  View metadata report for BODC series reference number 176172
1761841988-06-26 12:04 59° 16' 53" N  1° 20' 27" W  View metadata report for BODC series reference number 176184
1761961988-06-26 13:06 59° 17' 5" N  1° 9' 57" W  View metadata report for BODC series reference number 176196
1762031988-06-26 13:48 59° 17' 5" N  0° 59' 57" W  View metadata report for BODC series reference number 176203
1762151988-06-26 15:00 59° 17' 5" N  0° 39' 59" W  View metadata report for BODC series reference number 176215
1762271988-06-26 16:07 59° 17' 3" N  0° 19' 55" W  View metadata report for BODC series reference number 176227
1762391988-06-26 17:12 59° 17' 11" N  0° 0' 21" W  View metadata report for BODC series reference number 176239
1762401988-06-26 18:58 59° 8' 6" N  0° 12' 3" E  View metadata report for BODC series reference number 176240
1762521988-06-26 20:09 58° 59' 4" N  0° 23' 58" E  View metadata report for BODC series reference number 176252
1762641988-06-26 21:25 58° 49' 57" N  0° 35' 51" E  View metadata report for BODC series reference number 176264
1762761988-06-26 23:07 58° 41' 15" N  0° 48' 23" E  View metadata report for BODC series reference number 176276
1762881988-06-27 01:18 58° 32' 6" N  0° 5' 47" E  View metadata report for BODC series reference number 176288
1763071988-06-27 03:29 58° 18' 17" N  0° 24' 14" W  View metadata report for BODC series reference number 176307
1763191988-06-27 05:00 58° 9' 9" N  0° 49' 23" W  View metadata report for BODC series reference number 176319
1755371988-06-21 21:11 59° 30' 0" N  4° 59' 53" W  View metadata report for BODC series reference number 175537
1755491988-06-21 22:43 59° 29' 59" N  4° 29' 43" W  View metadata report for BODC series reference number 175549
1755501988-06-22 00:26 59° 29' 54" N  3° 59' 52" W  View metadata report for BODC series reference number 175550
1755621988-06-22 01:40 59° 39' 48" N  3° 59' 26" W  View metadata report for BODC series reference number 175562
1755741988-06-22 03:46 59° 40' 1" N  4° 29' 58" W  View metadata report for BODC series reference number 175574
1755861988-06-22 05:22 59° 49' 58" N  4° 0' 2" W  View metadata report for BODC series reference number 175586
1755981988-06-22 07:14 59° 59' 56" N  3° 29' 59" W  View metadata report for BODC series reference number 175598
1756051988-06-22 10:41 60° 0' 46" N  3° 3' 2" W  View metadata report for BODC series reference number 175605
1756171988-06-22 18:17 60° 9' 44" N  2° 29' 53" W  View metadata report for BODC series reference number 175617
1756291988-06-22 20:21 60° 10' 3" N  2° 59' 43" W  View metadata report for BODC series reference number 175629
1756301988-06-22 22:20 60° 10' 1" N  3° 30' 2" W  View metadata report for BODC series reference number 175630
1756421988-06-22 23:56 60° 19' 1" N  3° 2' 25" W  View metadata report for BODC series reference number 175642
1756541988-06-23 01:37 60° 19' 48" N  2° 29' 13" W  View metadata report for BODC series reference number 175654
1756661988-06-23 03:33 60° 20' 8" N  2° 0' 3" W  View metadata report for BODC series reference number 175666